Weather History for Cincinnati, OH

Change the Weather History Date:

Friday, October 21, 2011

  Actual Average Record
Temperature  
Mean Temperature 49 °F -  
Max Temperature 60 °F 65 °F 83 °F (1979)
Min Temperature 39 °F 43 °F 25 °F (1974)
Degree Days  
Heating Degree Days 16    
Moisture  
Dew Point 38 °F    
Average Humidity 68    
Maximum Humidity 96    
Minimum Humidity 46    
Precipitation  
Precipitation 0.00 in - - ()
Sea Level Pressure  
Sea Level Pressure 30.07 in    
Wind  
Wind Speed 7 mph (WSW)    
Max Wind Speed 12 mph    
Max Gust Speed -    
Visibility 10 miles    
Events      
Averages and records for this station are not official NWS values.
T = Trace of Precipitation, MM = Missing Value Source: NWS Daily Summary

Daily Weather History Graph

Daily Weather History Graph

Search for Another Location

Airport:

Trip Planner

Search our weather history database for the weather conditions in past years. The results will help you decide how hot, cold, wet, or windy it might be!

Date:

Astronomy

Oct. 21, 2011 Rise Set
Actual Time 7:53 AM EDT 6:50 PM EDT
Civil Twilight 7:25 AM EDT 7:18 PM EDT
Nautical Twilight 6:54 AM EDT 7:49 PM EDT
Astronomical Twilight 6:23 AM EDT 8:20 PM EDT
Moon 1:45 AM EDT (10/21) 3:32 PM EDT (10/21)
Length of Visible Light 11h 52m
Length of Day
10h 57m
Waning Crescent, 34% of the Moon is Illuminated
Oct 21
Waning Crescent
Oct 26
New
Nov 2
First Quarter
Nov 10
Full
Nov 18
Last Quarter

Hourly Weather History & Observations

Time (EDT) Temp. Windchill Dew Point Humidity Pressure Visibility Wind Dir Wind Speed Gust Speed Precip Events Conditions
12:53 AM 46.0 °F 41.4 °F 37.9 °F 73% 29.96 in 10.0 mi WSW 9.2 mph - N/A   Unknown
1:53 AM 46.0 °F 41.9 °F 37.9 °F 73% 29.97 in 10.0 mi SW 8.1 mph - N/A   Unknown
2:53 AM 45.0 °F 40.6 °F 37.9 °F 76% 29.99 in 10.0 mi WSW 8.1 mph - N/A   Unknown
3:53 AM 45.0 °F 41.2 °F 37.9 °F 76% 30.00 in 10.0 mi SW 6.9 mph - N/A   Unknown
4:53 AM 45.0 °F 41.8 °F 37.0 °F 74% 30.01 in 10.0 mi SW 5.8 mph - N/A   Unknown
5:53 AM 45.0 °F 42.6 °F 37.9 °F 76% 30.02 in 10.0 mi WSW 4.6 mph - N/A   Unknown
6:53 AM 45.0 °F 41.8 °F 37.9 °F 76% 30.04 in 10.0 mi SW 5.8 mph - N/A   Unknown
7:53 AM 45.0 °F 42.6 °F 37.9 °F 76% 30.05 in 10.0 mi WSW 4.6 mph - N/A   Unknown
8:53 AM 46.0 °F 42.5 °F 37.9 °F 73% 30.08 in 10.0 mi WSW 6.9 mph - N/A   Unknown
9:53 AM 46.9 °F - 37.9 °F 71% 30.10 in 10.0 mi WSW 6.9 mph - N/A   Unknown
10:53 AM 50.0 °F - 39.2 °F 66% 30.10 in 10.0 mi SW 8.1 mph - N/A   Unknown
11:53 AM 53.1 °F - 39.0 °F 59% 30.11 in 10.0 mi SW 9.2 mph - N/A   Unknown
12:53 PM 55.9 °F - 37.9 °F 51% 30.10 in 10.0 mi WSW 10.4 mph - N/A   Clear
1:53 PM 55.0 °F - 37.9 °F 53% 30.09 in 10.0 mi West 9.2 mph - N/A   Scattered Clouds
2:53 PM 57.9 °F - 39.0 °F 49% 30.07 in 10.0 mi WSW 10.4 mph - N/A   Mostly Cloudy
3:53 PM 57.9 °F - 37.9 °F 47% 30.07 in 10.0 mi SW 5.8 mph - N/A   Partly Cloudy
4:53 PM 57.9 °F - 37.0 °F 46% 30.08 in 10.0 mi West 11.5 mph - N/A   Partly Cloudy
5:53 PM 57.9 °F - 37.9 °F 47% 30.08 in 10.0 mi WSW 8.1 mph - N/A   Partly Cloudy
6:53 PM 54.0 °F - 37.9 °F 55% 30.09 in 10.0 mi WSW 6.9 mph - N/A   Clear
7:53 PM 54.0 °F - 37.0 °F 53% 30.11 in 10.0 mi NW 4.6 mph - N/A   Clear
8:53 PM 44.1 °F - 41.0 °F 89% 30.13 in 10.0 mi Calm Calm - N/A   Clear
9:53 PM 43.0 °F - 39.9 °F 89% 30.14 in 10.0 mi Calm Calm - N/A   Clear
10:53 PM 41.0 °F - 39.0 °F 93% 30.14 in 10.0 mi Calm Calm - N/A   Clear
11:53 PM 39.0 °F - 37.9 °F 96% 30.15 in 6.0 mi Calm Calm - N/A   Clear